軌道要素
Epoch 2012 Sept. 30.0 TT = JDT 2456200.5
T 2012 Oct. 19.62189 TT MPC
q 2.0795703 (2000.0) P Q
z -0.0003429 Peri. 308.86159 -0.24322917 -0.76721658
+/-0.0000003 Node 221.40824 -0.33937955 -0.50586660
e 1.0007131 Incl. 116.19698 -0.90865896 +0.39430660
From 1304 observations 2010 Oct. 11-2014 Mar. 10, mean residual 0".5.
|